1358812829713,53.2678
1358812889713,53.1569
1358812949713,53.2704
1358813009713,53.2470
1358813069713,53.3086
1358813129713,53.1388
1358813189713,53.0762
1358813249713,53.2607
1358813309713,53.1979
1358813369713,53.2250
1358813429713,53.3097
1358813489713,53.1379
1358813549713,53.3873
1358813609713,53.2198
1358813669713,53.3912
1358813729713,53.2304
1358813789713,53.1842
1358813849713,53.1258
1358813909713,53.0803
1358813969713,53.1486
1358814029713,53.3605
1358814089713,53.2775
1358814149713,53.2626
1358814209713,53.3695
1358814269713,53.3823
1358814329713,53.2683
1358814389713,53.2130
1358814449713,53.1795
1358814509713,53.2722
1358814569713,53.1797
1358814629713,53.1692
1358814689713,53.1461
1358814749713,53.1327
1358814809713,53.1319
1358814869713,53.1319
1358814929713,53.2524
1358814989713,53.3009
1358815049713,53.1112
1358815109713,52.8843
1358815169713,53.2159
1358815229713,53.2279
1358815289713,53.1583
1358815349713,53.2120
1358815409713,53.1856
1358815469713,53.2214
1358815529713,53.2856
1358815589713,53.1794
1358815649713,53.2979
1358815709713,53.0972
1358815769713,53.1844
1358815829713,53.2246
1358815889713,53.2145
1358815949713,53.0847
1358816009713,53.0717
1358816069713,53.1698
1358816129713,53.2410
1358816189713,53.2301
1358816249713,53.1224
1358816309713,53.0578
1358816369713,53.3062
1358816429723,53.1042
1358816489723,53.2091
1358816549723,53.2328
1358816609723,53.3508
1358816669723,53.2685
1358816729723,53.1175
1358816789723,53.1476
1358816849723,53.2522
1358816909723,53.3023
1358816969723,53.3588
1358817029723,53.2791
1358817089723,53.2296
1358817149723,53.1434
1358817209723,53.2600
1358817269723,53.2568
1358817329723,53.1897
1358817389723,53.2472
1358817449723,53.1476
1358817509723,53.1488
1358817569723,53.2905
1358817629723,53.1997
1358817689723,53.1029
1358817749723,53.0666
1358817809723,53.2763
1358817869723,53.1089
1358817929723,53.0237
1358817989723,53.0093
1358818049723,52.9578
1358818109723,52.9817
1358818169723,53.0910
1358818229723,52.8669
1358818289723,53.0707
1358818349723,53.0603
1358818409723,52.9755
1358818469723,53.0068
1358818529723,53.0003
1358818589723,53.0549
1358818649723,52.8847
1358818709723,52.9755
1358818769723,52.8865
1358818829723,53.0352
1358818889723,52.9423
1358818949723,53.0081
1358819009723,53.0042
1358819069723,52.8718
1358819129723,52.9365
1358819189723,52.8875
1358819249723,52.7766
1358819309723,52.8856
1358819369723,52.9255
1358819429723,52.9122
1358819489723,53.0748
1358819549723,52.9033
1358819609723,52.9632
1358819669723,53.1242
1358819729723,52.9884
1358819789723,53.0867
1358819849723,53.0231
1358819909723,53.1066
1358819969723,53.1158
1358820029733,53.2080
1358820089733,53.1040
1358820149733,52.9293
1358820209733,52.9466
1358820269733,53.1161
1358820329733,52.9932
1358820389733,53.0986
1358820449733,52.9215
1358820509733,53.0622
1358820569733,53.0939
1358820629733,53.1799
1358820689733,53.1530
1358820749733,53.1585
1358820809733,53.0255
1358820869733,53.0015
1358820929733,53.0171
1358820989733,53.2867
1358821049733,53.3021
1358821109733,53.0603
1358821169733,53.1274
1358821229733,53.1597
1358821289733,53.4040
1358821349733,52.9345
1358821409733,53.1470
1358821469733,53.1366
1358821529733,52.9831
1358821589733,53.1478
1358821649733,53.3308
1358821709733,53.1437
1358821769733,53.0671
1358821829733,53.0906
1358821889733,53.2605
1358821949733,53.0821
1358822009733,53.1567
1358822069733,53.2153
1358822129733,53.1557
1358822189733,53.1094
1358822249733,53.2171
1358822309733,53.3172
1358822369733,53.2464
1358822429733,53.2471
1358822489733,53.0626
1358822549733,53.2735
1358822609733,53.3474
1358822669733,53.1108
1358822729733,53.2298
1358822789733,53.1659
1358822849733,53.1886
1358822909733,53.1991
1358822969733,53.1047
1358823029733,53.2244
1358823089733,53.2897
1358823149733,53.1912
1358823209733,53.0665
1358823269733,53.3142
1358823329733,53.1050
1358823389733,53.2361
1358823449733,53.2463
1358823509733,53.0739
1358823569733,53.1687
1358823629744,53.2025
1358823689744,53.1960
1358823749744,53.1283
1358823809744,53.1945
1358823869744,53.2374
1358823929744,53.1396
1358823989744,53.0488
1358824049744,53.0729
1358824109744,53.1842
1358824169744,53.1301
1358824229744,53.0325
1358824289744,53.1124
1358824829744,53.0772
1358824889744,53.1416
1358824949744,53.3243
1358825009744,53.2558
1358825069744,53.2324
1358825129744,53.2423
1358825189744,53.2189
1358825249744,53.1342
1358825309744,53.3182
1358825369744,53.2064
1358825429744,53.3129
1358825489744,53.0458
1358825549744,53.4486
1358825609744,53.2515
1358825669744,53.2885
1358825729744,53.2718
1358825789744,53.2879
1358825849744,53.2572
1358825909744,53.4664
1358825969744,53.2694
1358826029744,53.1903
1358826089744,53.4621
1358826149744,53.2630
1358826209744,53.4576
1358826269744,53.3061
1358826329744,53.2448
1358826389744,53.1293
1358826449744,53.3107
1358826509744,53.3275
1358826569744,53.1784
1358826629744,53.3913
1358826689744,53.3340
1358826749744,53.1797
1358826809744,53.3050
1358826869744,53.2649
1358826929744,53.0738
1358826989744,53.2309
1358827049744,53.1690
1358827109744,53.2885
1358827169744,53.1497
1358827229754,53.2283
1358827289754,53.1415
1358827349754,53.2487
1358827409754,53.2139
1358827469754,53.1592
1358827529754,53.2464
1358827589754,53.1425
1358827649754,53.4131
1358827709754,53.1420
1358827769754,53.4908
1358827829754,53.3196
1358827889754,53.2447
1358827949754,53.2045
1358828009754,53.2585
1358828069754,53.3002
1358828129754,53.2265
1358828189754,53.2676
1358828249754,53.2798
1358828309754,53.2906
1358828369754,53.1575
1358828429754,53.2657
1358828489754,53.4154
1358828549754,53.2138
1358828609754,53.5067
1358828669754,53.2695
1358828729754,53.1667
1358828789754,53.2738
1358828849754,53.2650
1358828909754,53.3433
1358828969754,53.1830
1358829029754,53.0831
1358829089754,53.1696
1358829149754,53.2285
1358829209754,53.3028
1358829269754,53.0959
1358829329754,53.3562
1358829389754,53.1769
1358829449754,53.0803
1358829509754,53.3869
1358829569754,53.0472
1358829629754,53.1704
1358829689754,53.0841
1358829749754,53.1732
1358829809754,53.2052
1358829869754,53.0943
1358829929754,53.1821
1358829989754,53.1546
1358830049754,52.9648
1358830109754,53.0514
1358830169754,53.0434
1358830229754,52.9801
1358830289754,53.0075
1358830349754,53.0470
1358830409754,53.0353
1358830469754,53.1398
1358830529754,53.0602
1358830589754,53.1629
1358830649754,53.1195
1358830709754,53.0642
1358830769754,53.6653
1358830829765,53.2812
1358830889765,53.3083
1358830949765,53.3374
1358831009765,53.1939
1358831069765,53.1046
1358831129765,53.1397
1358831189765,53.1548
1358831249765,53.2627
1358831309765,53.2794
1358831369765,53.2595
1358831429765,53.2961
1358831489765,53.2750
1358831549765,53.1698
1358831609765,53.2825
1358831669765,53.1135
1358831729765,53.2265
1358831789765,53.2020
1358831849765,53.1927
1358831909765,53.3270
1358831969765,53.3969
1358832029765,53.1909
1358832089765,53.1197
1358832149765,53.2969
1358832209765,53.2456
1358832269765,53.3447
1358832329765,53.4217
1358832389765,53.2533
1358832449765,53.4359
1358832509765,53.3827
1358832569765,53.3707
1358832629765,53.3907
1358832689765,53.2448
1358832749765,53.2152
1358832809765,53.3574
1358832869765,53.3883
1358832929765,53.2663
1358832989765,53.3670
1358833049765,53.3909
1358833109765,53.2733
1358833169765,53.2934
1358833229765,53.3780
1358833289765,53.4312
1358833349765,53.3657
1358833409765,53.3443
1358833469765,53.5114
1358833529765,53.3924
1358833589765,53.4641
1358833649765,53.3864
1358833709765,53.3746
1358833769765,53.3182
1358833829765,53.4590
1358833889765,53.3793
1358833949765,53.4290
1358834009765,53.6269
1358834069765,53.3874
1358834129765,53.4685
1358834189765,53.5100
1358834249765,53.5563
1358834309765,53.4329
1358834369765,53.5232
1358834429776,53.5077
1358834489776,53.6418
1358834549776,53.3897
1358834609776,53.6436
1358834669776,53.4162
1358834729776,53.6333
1358834789776,53.5789
1358834849776,53.6254
1358834909776,53.5620
1358834969776,53.6748
1358835029776,53.6740
1358835089776,53.5228
1358835149776,53.6703
1358835209776,53.4526
1358835269776,53.5532
1358835329776,53.6548
1358835389776,53.5533
1358835449776,53.5693
1358835509776,53.6793
1358835569776,53.4701
1358835629776,53.6775
1358835689776,53.8734
1358835749776,53.6025
1358835809776,53.7113
1358835869776,53.7655
1358835929776,53.8498
1358835989776,53.8233
1358836049776,53.6768
1358836109776,53.6179
1358836169776,53.8256
1358836229776,53.6754
1358836289776,53.7591
1358836349776,53.7199
1358836409776,53.8486
1358836469776,53.6560
1358836529776,53.6974
1358836589776,53.7362
1358836649776,53.5581
1358836709776,53.7416
1358836769776,53.7336
1358836829776,53.6452
1358836889776,53.7914
1358836949776,53.7146
1358837009776,53.8888
1358837069776,53.8072
1358837129776,53.5838
1358837189776,53.6372
1358837249776,53.7377
1358837309776,53.8198
1358837369776,53.6149
1358837429776,53.7759
1358837489776,53.7868
1358837549776,53.8398
1358837609776,53.7475
1358837669776,53.6505
1358837729776,53.5209
1358837789776,53.7529
1358837849776,53.7251
1358837909776,53.5829
1358837969776,53.6624
1358838029787,53.6772
1358838089787,53.6516
1358838149787,53.6758
1358838209787,53.5600
1358838269787,53.7474
1358838329787,53.7799
1358838389787,53.7212
1358838449787,53.6146
1358838509787,53.6700
1358838569787,53.7569
1358838629787,53.5802
1358838689787,53.7302
1358838749787,53.6468
1358838809787,53.7158
1358838869787,53.6863
1358838929787,53.5642
1358838989787,53.6773
1358839049787,53.6939
1358839109787,53.7919
1358839169787,53.7558
1358839229787,53.5920
1358839289787,53.7226
1358839349787,53.5848
1358839409787,53.7074
1358839469787,53.6658
1358839529787,53.6016
1358839589787,53.4581
1358839649787,53.5712
1358839709787,53.5074
1358839769787,53.7197
1358839829787,53.6442
1358839889787,53.6421
1358839949787,53.8067
1358840009787,53.6895
1358840069787,53.5673
1358840129787,53.7135
1358840189787,53.5796
1358840249787,53.6903
1358840309787,53.7604
1358840369787,53.6386
1358840429787,53.5915
1358840489787,53.6248
1358840549787,53.5338
1358840609787,53.6702
1358840669787,53.5130
1358840729787,53.6167
1358840789787,53.6771
1358840849787,53.5386
1358840909787,53.6178
1358840969787,53.6242
1358841029787,53.8517
1358841089787,53.6818
1358841149787,53.6351
1358841209787,53.7083
1358841269787,53.6924
1358841329787,53.4764
1358841389787,53.5790
1358841449787,53.5456
1358841509787,53.6418
1358841569787,53.5100
1358841629798,53.5609
1358841689798,53.6210
1358841749798,53.5125
1358841809798,53.7421
1358841869798,53.6529
1358841929798,53.6547
1358841989798,53.6228
1358842049798,53.4777
1358842109798,53.4592
1358842169798,53.8942
1358842229798,53.6627
1358842289798,53.6038
1358842349798,53.5536
1358842409798,53.6524
1358842469798,53.4480
1358842529798,53.6245
1358842589798,53.5236
1358842649798,53.5585
1358842709798,53.5133
1358842769798,53.5686
1358842829798,53.4229
1358842889798,53.4573
1358842949798,53.6471
1358843009798,53.4984
1358843069798,53.5937
1358843129798,53.5171
1358843189798,53.6407
1358843249798,53.6450
1358843309798,53.5810
1358843369798,53.4989
1358843429798,53.5522
1358843489798,53.5000
1358843549798,53.4685
1358843609798,53.6584
1358843669798,53.4692
1358843729798,53.5250
1358843789798,53.4542
1358843849798,53.4322
1358843909798,53.4440
1358843969798,53.6484
1358844029798,53.5911
1358844089798,53.4208
1358844149798,53.5877
1358844209798,53.3641
1358844269798,53.4703
1358844329798,53.4460
1358844389798,53.4450
1358844449798,53.4720
1358844509798,53.4180
1358844569798,53.5313
1358844629798,53.4537
1358844689798,53.5408
1358844749798,53.4786
1358844809798,53.4902
1358844869798,53.2928
1358844929798,53.5417
1358844989798,53.2436
1358845049798,53.3695
1358845109798,53.4199
1358845169798,53.5677
1358845229810,53.4338
1358845289810,53.2659
1358845349810,53.2636
1358845409810,53.4743
1358845469810,53.5109
1358845529810,53.5459
1358845589810,53.2784
1358845649810,53.3190
1358845709810,53.3867
1358845769810,53.4548
1358845829810,53.5546
1358845889810,53.3952
1358845949810,53.3336
1358846009810,53.3150
1358846069810,53.3515
1358846129810,53.4006
1358846189810,53.2899
1358846249810,53.4721
1358846309810,53.6503
1358846369810,53.3879
1358846429810,53.5538
1358846489810,53.3890
1358846549810,53.4846
1358846609810,53.3814
1358846669810,53.2869
1358846729810,53.3549
1358846789810,53.3903
1358846849810,53.3902
1358846909810,53.3955
1358846969810,53.2945
1358847029810,53.4610
1358847089810,53.3896
1358847149810,53.5940
1358847209810,53.4594
1358847269810,53.3846
1358847329810,53.6623
1358847389810,53.5168
1358847449810,53.4441
1358847509810,53.3729
1358847569810,53.3761
1358847629810,53.4344
1358847689810,53.4935
1358847749810,53.5767
1358847809810,53.5004
1358847869810,53.5089
1358847929810,53.4364
1358847989810,53.7691
1358848049810,53.4459
1358848109810,53.6092
1358848169810,53.6225
1358848229810,53.5212
1358848289810,53.5495
1358848349810,53.3704
1358848409810,53.4953
1358848469810,53.5524
1358848529810,53.5176
1358848589810,53.6722
1358848649810,53.3419
1358848709810,53.4474
1358848769810,53.4966
1358848829821,53.4808
1358848889821,53.5843
1358848949821,53.4245
1358849009821,53.4589
1358849069821,53.4751
1358849129821,53.3332
1358849189821,53.5133
1358849249821,53.4724
1358849309821,53.3934
1358849369821,53.3408
1358849429821,53.5046
1358849489821,53.5022
1358849549821,53.4228
1358849609821,53.4051
1358849669821,53.5828
1358849729821,53.5586
1358849789821,53.4090
1358849849821,53.2686
1358849909821,53.5162
1358849969821,53.4045
1358850029821,53.5027
1358850089821,53.4597
1358850149821,53.5071
1358850209821,53.3639
1358850269821,53.3124
1358850329821,53.3833
1358850389821,53.4455
1358850449821,53.3786
1358850509821,53.3651
1358850569821,53.5034
1358850629821,53.3511
1358850689821,53.3582
1358850749821,53.6084
1358850809821,53.3349
1358850869821,53.4211
1358850929821,53.3918
1358850989821,53.5290
1358851049821,53.2511
1358851109821,53.2955
1358851169821,53.2353
1358851229821,53.3829
1358851289821,53.1856
1358851349821,53.5320
1358851409821,53.3369
1358851469821,53.2309
1358851529821,53.8270
1358851589821,53.4021
1358851649821,53.1894
1358851709821,53.2159
1358851769821,53.1923
1358851829821,53.3915
1358851889821,53.1883
1358851949821,53.3230
1358852009821,53.3441
1358852069821,53.2881
1358852129821,53.2695
1358852189821,53.3426
1358852249821,53.3034
1358852309821,53.2580
1358852369821,53.3165
1358852429833,53.2676
1358852489833,53.0778
1358852549833,53.2562
1358852609833,53.1586
1358852669833,53.2384
1358852729833,53.2676
1358852789833,53.3678
1358852849833,53.1734
1358852909833,53.2192
1358852969833,53.2144
1358853029833,53.1283
1358853089833,53.1863
1358853149833,53.2225
1358853209833,53.2787
1358853269833,53.1499
1358853329833,53.3571
1358853389833,53.1684
1358853449833,53.1244
1358853509833,53.2163
1358853569833,53.1080
1358853629833,53.1882
1358853689833,53.2149
1358853749833,53.1179
1358853809833,53.1346
1358853869833,53.0335
1358853929833,53.1099
1358853989833,53.1100
1358854049833,53.0493
1358854109833,53.0865
1358854169833,53.1181
1358854229833,53.0571
1358854289833,53.1700
1358854349833,52.9627
1358854409833,53.2375
1358854469833,52.9100
1358854529833,52.9040
1358854589833,53.0065
1358854649833,52.9129
1358854709833,53.1516
1358854769833,52.8153
1358854829833,53.0554
1358854889833,52.9620
1358854949833,52.9295
1358855009833,52.9084
1358855069833,52.9818
1358855129833,53.3319
1358855189833,52.9779
1358855249833,52.8830
1358855309833,53.0648
1358855369833,52.9008
1358855429833,52.8577
1358855489833,52.8221
1358855549833,53.0114
1358855609833,53.1339
1358855669833,52.9525
1358855729833,53.0849
1358855789833,53.0067
1358855849833,53.2058
1358855909833,53.0666
1358855969833,52.9270
1358856029844,52.8982
1358856089844,52.8578
1358856149844,53.0668
1358856209844,53.1047
1358856269844,53.1685
1358856329844,52.9684
1358856389844,53.0611
1358856449844,52.8484
1358856509844,52.9524
1358856569844,53.0053
1358856629844,52.9802
1358856689844,52.9246
1358856749844,52.9696
1358856809844,53.0899
1358856869844,52.9938
1358856929844,52.9584
1358856989844,53.0819
1358857049844,53.0205
1358857109844,52.9785
1358857169844,53.2569
1358857229844,53.2353
1358857289844,53.2445
1358857349844,52.9944
1358857409844,53.2379
1358857469844,53.2052
1358857529844,53.2087
1358857589844,53.0283
1358857649844,53.1578
1358857709844,53.2467
1358857769844,53.1189
1358857829844,53.1372
1358857889844,53.3054
1358857949844,53.0285
1358858009844,53.2506
1358858069844,53.1160
1358858129844,53.2326
1358858189844,53.1702
1358858249844,53.0731
1358858309844,53.2118
1358858369844,53.0668
1358858429844,53.2638
1358858489844,53.1011
1358858549844,53.1525
1358858609844,53.1112
1358858669844,53.2535
1358858729844,53.1661
1358858789844,53.2126
1358858849844,53.1771
1358858909844,53.1701
1358858969844,52.9289
1358859029844,53.5028
1358859089844,53.0131
1358859149844,53.0114
1358859209844,53.3280
1358859269844,53.1306
1358859329844,53.1496
1358859389844,53.2721
1358859449844,53.1802
1358859509844,53.1718
1358859569844,53.1433
1358859629855,53.2379
1358859689855,53.2563
1358859749855,53.4130
1358859809855,53.2506
1358859869855,53.2206
1358859929855,53.2875
1358859989855,53.1764
1358860049855,53.5429
1358860109855,53.2058
1358860169855,53.1889
1358860229855,53.1449
1358860289855,53.3701
1358860349855,53.2115
1358860409855,53.1888
1358860469855,53.2391
1358860529855,53.1632
1358860589855,53.1872
1358860649856,53.2272
1358860709856,53.1612
1358860769856,53.1846
1358860829855,53.4683
1358860889855,53.4011
1358860949855,53.1423
1358861009855,53.3581
1358861069855,53.1628
1358861129855,53.2101
1358861189855,53.2632
1358861249855,53.0404
1358861309855,53.1367
1358861369855,53.2128
1358861429855,53.1986
1358861489855,53.0907
1358861549855,53.2416
1358861609855,53.2668
1358861669855,53.2202
1358861729855,53.0831
1358861789855,53.2874
1358861849855,53.2255
1358861909855,53.2005
1358861969856,53.3749
1358862029856,53.4678
1358862089856,53.1823
1358862149856,53.1218
1358862209855,53.3668
1358862269855,53.0684
1358862329855,53.2214
1358862389855,53.0995
1358862449855,53.1373
1358862509855,53.4049
1358862569855,53.2520
1358862629855,52.9897
1358862689855,53.1555
1358862749855,53.2100
1358862809855,53.1954
1358862869855,53.3855
1358862929855,53.3702
1358862989855,53.1109
1358863049855,53.3801
1358863109855,53.4689
1358863169855,53.3503
1358863229867,53.3788
1358863289867,53.3842
1358863349867,53.3179
1358863409867,53.2941
1358863469867,53.4671
1358863529867,53.3422
1358863589867,53.2964
1358863649867,53.4438
1358863709867,53.2027
1358863769867,53.2808
1358863829867,53.4271
1358863889867,53.1580
1358863949867,53.2393
1358864009867,53.2619
1358864069867,53.2819
1358864129867,53.4204
1358864189867,53.3215
1358864249867,53.3204
1358864309867,53.2159
1358864369867,53.1960
1358864429867,53.3270
1358864489867,53.2952
1358864549867,53.0167
1358864609867,53.2588
1358864669867,53.2873
1358864729867,53.3011
1358864789867,53.1644
1358864849867,53.1465
1358864909867,53.3503
1358864969867,53.1630
1358865029867,53.1791
1358865089867,53.2571
1358865149867,53.2472
1358865209867,53.3634
1358865269867,53.2260
1358865329867,53.1109
1358865389867,53.1042
1358865449867,53.1967
1358865509867,53.2611
1358865569867,53.2401
1358865629867,53.2739
1358865689867,53.1559
1358865749867,53.1413
1358865809867,53.1932
1358865869867,53.1675
1358865929867,53.2415
1358865989867,53.2145
1358866049867,53.1648
1358866109867,53.1732
1358866169867,53.2717
1358866229867,53.0904
1358866289867,53.1110
1358866349867,53.0784
1358866409867,53.1924
1358866469867,53.2139
1358866529867,53.0756
1358866589867,53.2411
1358866649867,53.1668
1358866709867,53.1624
1358866769867,53.0853
1358866829878,53.0965
1358866889878,53.0811
1358866949878,53.1031
1358867009878,53.1628
1358867069878,53.0754
1358867129878,53.0824
1358867189878,53.1905
1358867249878,53.2119
1358867309878,53.0754
1358867369878,53.1178
1358867429878,52.9413
1358867489878,53.0591
1358867549878,53.0931
1358867609878,53.0644
1358867669878,52.9682
1358867729878,53.1422
1358867789878,53.0245
1358867849878,53.0922
1358867909878,52.9701
1358867969878,53.0245
1358868029878,53.0352
1358868089878,53.0531
1358868149878,53.0439
1358868209878,52.9227
1358868269878,52.8276
1358868329878,53.0671
1358868389878,52.9034
1358868449878,52.9813
1358868509878,53.1161
1358868569878,52.8858
1358868629878,52.9636
1358868689878,52.9321
1358868749878,52.7961
1358868809878,52.9111
1358868869878,53.0243
1358868929878,52.8214
1358868989878,52.9159
1358869049878,52.9347
1358869109878,52.7858
1358869169878,52.8199
1358869229878,52.8211
1358869289878,52.8131
1358869349878,52.9453
1358869409878,52.8480
1358869469878,52.9610
1358869529878,52.9572
1358869589878,52.9811
1358869649878,52.9010
1358869709878,52.9028
1358869769878,52.8522
1358869829878,52.8846
1358869889878,52.7186
1358869949878,52.7942
1358870009878,52.9116
1358870069878,52.7954
1358870129878,52.8812
1358870189878,52.8498
1358870249878,52.8917
1358870309878,52.8994
1358870369878,52.7609
1358870429889,52.8215
1358870489889,52.7140
1358870549889,53.0551
1358870609889,53.0904
1358870669889,52.9657
1358870729889,52.9426
1358870789889,52.8237
1358870849889,52.7628
1358870909889,52.9841
1358870969889,52.9213
1358871029889,52.9330
1358871089889,52.9460
1358871149889,52.8231
1358871209889,52.8258
1358871269889,52.9317
1358871329889,52.7779
1358871389889,52.8285
1358871449889,52.8921
1358871509889,52.8083
1358871569889,52.8071
1358871629889,52.9214
1358871689889,52.8128
1358871749889,52.8693
1358871809889,52.8609
1358871869889,52.8296
1358871929889,52.9051
1358871989889,52.9860
1358872049889,52.7657
1358872109889,52.9905
1358872169889,53.0175
1358872229889,52.8940
1358872289889,52.8718
1358872349889,52.9154
1358872409889,52.8141
1358872469889,52.8084
1358872529889,52.8824
1358872589889,52.9307
1358872649889,52.9667
1358872709889,53.0349
1358872769889,52.9879
1358872829889,52.9152
1358872889889,53.0038
1358872949889,53.0888
1358873009889,52.9172
1358873069889,52.8242
1358873129889,52.9564
1358873189889,53.0164
1358873249889,53.0354
1358873309889,52.8949
1358873369889,53.0166
1358873429889,53.0036
1358873489889,52.9535
1358873549889,52.9999
1358873609889,52.9111
1358873669889,53.0132
1358873729889,52.8155
1358873789889,53.0735
1358873849889,52.8098
1358873909889,53.0991
1358873969889,53.0325
1358874029900,52.9890
1358874089900,53.0603
1358874149900,53.0517
1358874209900,53.0153
1358874269900,53.0861
1358874329900,53.0340
1358874389900,53.0587
1358874449900,53.0819
1358874509900,53.1037
1358874569900,53.1394
1358874629900,53.0815
1358874689900,53.0220
1358874749900,53.1368
1358874809900,53.1527
1358874869900,53.0969
1358874929900,53.0288
1358874989900,52.9817
1358875049900,53.0610
1358875109900,52.9112
1358875169900,53.0650
1358875229900,53.1107
1358875289900,52.9948
1358875349900,53.1151
1358875409900,53.1200
1358875469900,53.0688
1358875529900,53.0703
1358875589900,52.9758
1358875649900,52.9182
1358875709900,52.9798
1358875769900,53.1453
1358875829900,53.0769
1358875889900,53.1449
1358875949900,53.0374
1358876009900,53.0514
1358876069900,53.0726
1358876129900,53.0285
1358876189900,53.1215
1358876249900,52.9851
1358876309900,52.9352
1358876369900,52.9972
1358876429900,53.0938
1358876489900,52.9796
1358876549900,53.1508
1358876609900,52.8961
1358876669900,53.0450
1358876729900,53.0993
1358876789900,53.0059
1358876849900,53.0232
1358876909900,53.0210
1358876969900,53.1028
1358877029900,53.0570
1358877089900,53.0153
1358877149900,53.1578
1358877209900,52.9341
1358877269900,52.9956
1358877329900,53.1214
1358877389900,52.9712
1358877449900,53.2063
1358877509900,53.0733
1358877569900,53.1151
1358877629911,53.0649
1358877689911,53.0745
1358877749911,53.2299
1358877809911,53.0379
1358877869911,53.0181
1358877929911,53.1161
1358877989911,53.0428
1358878049911,53.0926
1358878109911,53.1729
1358878169911,52.9924
1358878229911,53.0542
1358878289911,52.9607
1358878349911,53.0274
1358878409911,53.1629
1358878469911,53.2185
1358878529911,52.9882
1358878589911,52.8850
1358878649911,53.0720